Regional Weather Roundup
Issued by NWS

Home | Current Version | Previous Version | Text Only | Print | Product List | Glossary On
Versions: 1 2 3 4 5 6 7 8 9 10 11 12 13 14 15 16 17 18 19 20 21 22 23 24 25 26 27 28 29 30 31 32 33 34 35 36 37 38 39 40 41 42 43 44 45 46 47 48 49 50
000
ASUS44 KMEG 230410
RWRTN
TENNESSEE HOURLY STATE WEATHER ROUNDUP
NATIONAL WEATHER SERVICE MEMPHIS TN
1100 PM CDT SUN APR 22 2018

TNZ002-004-019-021-049-052-054-088>092-230500-
WEST TENNESSEE

CITY           SKY/WX    TMP DP  RH WIND       PRES   REMARKS
MEMPHIS INTL   CLOUDY    61  61 100 N5        29.83F
NWS MEMPHIS      N/A     60 N/A N/A MISG        N/A
JACKSON        LGT RAIN  59  58  96 NE16      29.80F
DYERSBURG      LGT RAIN  58  57  97 NE12      29.84F
SOMERVILLE       N/A     61  59  94 NW3       29.80F
COVINGTON      CLOUDY    59  57  94 N7        29.83F
UNION CITY     CLOUDY    59  57  94 NE10      29.85F FOG
BOLIVAR        CLOUDY    59  57  94 SW5       29.80S
PARIS          CLOUDY    57  55  94 NE15G21   29.85F FOG
HUNTINGDON       N/A     59  57  94 NE9       29.83F FOG
LEXINGTON      CLOUDY    57  57 100 N6        29.79F FOG
SELMER         CLOUDY    57  57 100 N9        29.79F FOG
SAVANNAH       CLOUDY    59  57  94 N7        29.77F FOG
$$

TNZ008-025-027-028-033-062-065-066-230500-
NORTH MIDDLE TENNESSEE

CITY           SKY/WX    TMP DP  RH WIND       PRES   REMARKS
NASHVILLE      CLOUDY    58  55  90 E17G25    29.90F
PORTLAND       CLOUDY    57  55  94 E12G23    29.96F FOG
CLARKSVILLE    RAIN      58  54  86 E20G33    29.90F FOG
SMYRNA         LGT RAIN  58  55  90 E12G20    29.92S
COOKEVILLE     MOCLDY    57  54  88 E13G21    29.95F
LIVINGSTON     CLOUDY    55  54  94 E9        30.02F
GALLATIN       CLOUDY    57  55  94 NE13G22   29.96F FOG
CROSSVILLE     CLOUDY    54  50  86 E15G24    30.02F
ROCKWOOD       CLOUDY    54  54 100 E9G16     30.04F
$$

TNZ061-075-076-078-094-096-097-230500-
SOUTH MIDDLE TENNESSEE

CITY           SKY/WX    TMP DP  RH WIND       PRES   REMARKS
LEWISBURG      CLOUDY    57  55  94 E10       29.87R FOG
FAYETTEVILLE   CLOUDY    59  57  94 E16G22    29.84S
TULLAHOMA      CLOUDY    57  55  94 SE16G29   29.88S
WINCHESTER     MOCLDY    57  55  94 SE20G30   29.87F FOG
MCMINNVILLE    CLOUDY    57  54  88 E12G20    29.94S
COLUMBIA       CLOUDY    57  57 100 E17G25    29.80F FOG
SHELBYVILLE    CLOUDY    57  55  94 E16G24    29.88R FOG
$$

TNZ017-018-042-046-047-230500-
NORTHEAST TENNESSEE

CITY           SKY/WX    TMP DP  RH WIND       PRES   REMARKS
TRI CITIES     CLOUDY    59  44  57 E9        30.17S
ELIZABETHTON     N/A     61  43  51 E12       30.18S
$$

TNZ012-013-036-069-073-074-230500-
CENTRAL EAST TENNESSEE

CITY           SKY/WX    TMP DP  RH WIND       PRES   REMARKS
KNOXVILLE      LGT RAIN  56  54  93 NE7       30.06F
OAK RIDGE      LGT RAIN  57  57 100 CALM      30.09S
DOWNTOWN KNOXV MOCLDY    57  55  94 CALM      30.07F
GATLINBURG     MOCLDY    57  52  82 NE5       30.07F
MORRISTOWN     CLOUDY    59  46  63 E9        30.10F
JACKSBORO      CLOUDY    55  54  94 CALM      30.12F
$$

TNZ083-085-099-230500-
SOUTHEAST TENNESSEE

CITY           SKY/WX    TMP DP  RH WIND       PRES   REMARKS
CHATTANOOGA    RAIN      58  55  90 VRB5      29.98F FOG
DAYTON         CLOUDY    57  57 100 NE3       30.02S
$$

SKY/WX REPORTED AS FAIR MEANS FEW OR NO CLOUDS BELOW
12 THOUSAND FEET.




USA.gov is the U.S. government's official web portal to all federal, state and local government web resources and services.